GW5072 Weather Reports


time (UTC)temp
C
wind
direction
speed
KPH
gust
KPH
rain 1hr
cm
rain 24hr
cm
rain mn
cm
humidity
%
barometer
mb
20260831210504 38 354 0.0 3.2 0.00 0.00 0.00 42 1014.1
20260831210005 38 52 0.0 3.2 0.00 0.00 0.00 44 1014.3
20260831205508 37 205 0.0 3.2 0.00 0.00 0.00 46 1014.3
20260831205004 36 129 0.0 1.6 0.00 0.00 0.00 46 1014.3
20260831204504 36 75 0.0 1.6 0.00 0.00 0.00 47 1014.4
20260831204009 36 77 0.0 1.6 0.00 0.00 0.00 48 1014.6
20260831203504 36 65 0.0 4.8 0.00 0.00 0.00 47 1014.7
20260831203003 36 120 0.0 4.8 0.00 0.00 0.00 45 1014.6
20260831202505 36 78 0.0 4.8 0.00 0.00 0.00 46 1014.6
20260831202004 37 44 0.0 3.2 0.00 0.00 0.00 44 1014.8
20260831201527 37 126 0.0 4.8 0.00 0.00 0.00 45 1014.9
20260831201003 37 115 0.0 4.8 0.00 0.00 0.00 47 1014.9
20260831200502 37 269 0.0 1.6 0.00 0.00 0.00 46 1015.0
20260831200035 36 319 0.0 4.8 0.00 0.00 0.00 47 1015.0
20260831195502 37 47 0.0 4.8 0.00 0.00 0.00 46 1015.2
20260831195002 37 179 0.0 4.8 0.00 0.00 0.00 46 1015.3
20260831194513 37 224 0.0 8.0 0.00 0.00 0.00 47 1015.3
20260831194007 37 88 1.6 9.7 0.00 0.00 0.00 46 1015.3
20260831193510 37 236 3.2 9.7 0.00 0.00 0.00 46 1015.4
20260831193010 37 155 0.0 4.8 0.00 0.00 0.00 47 1015.5
20260831192507 37 40 0.0 4.8 0.00 0.00 0.00 46 1015.5
20260831192010 36 213 0.0 4.8 0.00 0.00 0.00 49 1015.6
20260831191504 36 203 1.6 4.8 0.00 0.00 0.00 50 1015.8
20260831191012 35 98 0.0 1.6 0.00 0.00 0.00 51 1015.9
20260831190506 35 245 0.0 3.2 0.00 0.00 0.00 52 1015.9
20260831190006 35 254 0.0 3.2 0.00 0.00 0.00 52 1016.0
20260831185510 35 73 0.0 3.2 0.00 0.00 0.00 52 1016.1
20260831185005 35 51 0.0 3.2 0.00 0.00 0.00 52 1016.2
20260831184511 35 225 0.0 3.2 0.00 0.00 0.00 52 1016.2
20260831184007 35 54 0.0 3.2 0.00 0.00 0.00 53 1016.3
20260831183502 35 88 0.0 3.2 0.00 0.00 0.00 52 1016.4
20260831183035 35 240 0.0 3.2 0.00 0.00 0.00 53 1016.4
20260831182510 35 206 0.0 1.6 0.00 0.00 0.00 50 1016.4
20260831182003 36 300 0.0 6.4 0.00 0.00 0.00 49 1016.6
20260831181520 36 200 0.0 6.4 0.00 0.00 0.00 49 1016.5
20260831181003 36 217 0.0 6.4 0.00 0.00 0.00 50 1016.6
20260831180503 35 238 0.0 3.2 0.00 0.00 0.00 50 1016.7
20260831180019 35 137 0.0 3.2 0.00 0.00 0.00 52 1016.8
20260831175505 34 113 0.0 1.6 0.00 0.00 0.00 56 1016.7
20260831175013 34 209 0.0 1.6 0.00 0.00 0.00 55 1016.8
20260831174516 35 216 0.0 3.2 0.00 0.00 0.00 52 1017.0
20260831174006 36 323 0.0 3.2 0.00 0.00 0.00 52 1017.0
20260831173510 35 237 0.0 3.2 0.00 0.00 0.00 53 1017.1
20260831173007 35 238 0.0 1.6 0.00 0.00 0.00 55 1017.2
20260831172514 34 210 0.0 3.2 0.00 0.00 0.00 57 1017.2
20260831172008 33 217 0.0 3.2 0.00 0.00 0.00 58 1017.2
20260831171508 33 20 0.0 1.6 0.00 0.00 0.00 58 1017.3
20260831171011 33 200 0.0 1.6 0.00 0.00 0.00 60 1017.3
20260831170508 32 217 0.0 1.6 0.00 0.00 0.00 62 1017.3
20260831170006 32 212 0.0 1.6 0.00 0.00 0.00 64 1017.4
20260831165510 31 208 0.0 1.6 0.00 0.00 0.00 64 1017.5
20260831165005 31 274 0.0 1.6 0.00 0.00 0.00 65 1017.5
20260831164530 31 253 0.0 1.6 0.00 0.00 0.00 65 1017.4
20260831164011 31 252 0.0 1.6 0.00 0.00 0.00 65 1017.5
20260831163503 31 216 0.0 1.6 0.00 0.00 0.00 67 1017.5
20260831163038 31 215 0.0 1.6 0.00 0.00 0.00 67 1017.6
20260831162507 31 212 0.0 1.6 0.00 0.00 0.00 66 1017.6
20260831162002 31 219 0.0 1.6 0.00 0.00 0.00 65 1017.5
20260831161524 31 205 0.0 3.2 0.00 0.00 0.00 66 1017.5
20260831161005 31 86 0.0 3.2 0.00 0.00 0.00 67 1017.7
20260831160514 31 77 0.0 3.2 0.00 0.00 0.00 66 1017.6
20260831160034 30 246 0.0 3.2 0.00 0.00 0.00 67 1017.6
20260831155506 30 213 0.0 3.2 0.00 0.00 0.00 67 1017.6
20260831155014 30 231 0.0 1.6 0.00 0.00 0.00 68 1017.6
20260831154540 30 231 0.0 1.6 0.00 0.00 0.00 70 1017.6
20260831154015 30 229 0.0 1.6 0.00 0.00 0.00 71 1017.5
20260831153510 29 236 0.0 1.6 0.00 0.00 0.00 72 1017.5
20260831153011 29 218 0.0 1.6 0.00 0.00 0.00 71 1017.4
20260831152515 29 219 0.0 3.2 0.00 0.00 0.00 74 1017.4
20260831152009 28 215 0.0 3.2 0.00 0.00 0.00 74 1017.5
20260831151518 28 207 0.0 1.6 0.00 0.00 0.00 76 1017.3
20260831151017 28 204 0.0 0.0 0.00 0.00 0.00 81 1017.3
20260831150508 28 204 0.0 0.0 0.00 0.00 0.00 83 1017.4
20260831150032 27 204 0.0 3.2 0.00 0.00 0.00 83 1017.4
20260831145511 27 205 0.0 3.2 0.00 0.00 0.00 85 1017.4
20260831145007 27 212 0.0 1.6 0.00 0.00 0.00 87 1017.3
20260831144528 26 211 0.0 1.6 0.00 0.00 0.00 89 1017.3
20260831144006 26 212 0.0 1.6 0.00 0.00 0.00 90 1017.3
20260831143503 26 212 0.0 1.6 0.00 0.00 0.00 92 1017.3
20260831143028 26 212 0.0 1.6 0.00 0.00 0.00 93 1017.3
20260831142508 26 203 0.0 0.0 0.00 0.00 0.00 94 1017.2
20260831142018 26 214 0.0 0.0 0.00 0.00 0.00 95 1017.2
20260831141526 25 214 0.0 0.0 0.00 0.00 0.00 95 1017.1
20260831141005 25 214 0.0 0.0 0.00 0.00 0.00 96 1017.2
20260831140512 25 219 0.0 0.0 0.00 0.00 0.00 96 1017.1
20260831140034 25 219 0.0 0.0 0.00 0.00 0.00 96 1017.2
20260831135507 25 219 0.0 0.0 0.00 0.00 0.00 96 1017.1
20260831135013 25 219 0.0 0.0 0.00 0.00 0.00 96 1017.0
20260831134518 25 219 0.0 0.0 0.00 0.00 0.00 96 1016.7
20260831134015 25 219 0.0 0.0 0.00 0.00 0.00 96 1016.7
20260831133509 24 219 0.0 0.0 0.00 0.00 0.00 96 1016.7
20260831133011 24 219 0.0 0.0 0.00 0.00 0.00 96 1016.9
20260831132515 24 219 0.0 0.0 0.00 0.00 0.00 96 1017.0
20260831132012 23 219 0.0 0.0 0.00 0.00 0.00 96 1016.9
20260831131540 23 219 0.0 0.0 0.00 0.00 0.00 96 1016.7
20260831131016 23 219 0.0 0.0 0.00 0.00 0.00 96 1016.6
20260831130507 23 219 0.0 0.0 0.00 0.00 0.00 96 1016.7
20260831130037 23 219 0.0 0.0 0.00 0.00 0.00 96 1016.7
20260831125510 22 219 0.0 0.0 0.00 0.00 0.00 96 1016.6
20260831125008 22 219 0.0 0.0 0.00 0.00 0.00 96 1016.6
20260831124534 22 219 0.0 0.0 0.00 0.00 0.00 96 1016.5
20260831124011 22 219 0.0 0.0 0.00 0.00 0.00 96 1016.4
20260831123515 22 219 0.0 0.0 0.00 0.00 0.00 95 1016.4
20260831123027 22 219 0.0 0.0 0.00 0.00 0.00 96 1016.4
20260831122509 22 219 0.0 0.0 0.00 0.00 0.00 96 1016.3
20260831122014 22 219 0.0 0.0 0.00 0.00 0.00 95 1016.1
20260831121527 22 219 0.0 0.0 0.00 0.00 0.00 95 1016.1
20260831121007 22 219 0.0 0.0 0.00 0.00 0.00 95 1016.0
20260831120502 22 219 0.0 0.0 0.00 0.00 0.00 95 1016.0
20260831120030 22 219 0.0 0.0 0.00 0.00 0.00 95 1015.9
20260831115508 22 219 0.0 0.0 0.00 0.00 0.00 95 1015.9
20260831115014 22 219 0.0 0.0 0.00 0.00 0.00 95 1015.7
20260831114517 22 219 0.0 0.0 0.00 0.00 0.00 95 1015.6
20260831114003 22 219 0.0 0.0 0.00 0.00 0.00 95 1015.7
20260831113512 22 219 0.0 0.0 0.00 0.00 0.00 95 1015.8
20260831113015 22 219 0.0 0.0 0.00 0.00 0.00 95 1015.7
20260831112503 22 219 0.0 0.0 0.00 0.00 0.00 95 1015.7
20260831112011 22 219 0.0 0.0 0.00 0.00 0.00 95 1015.7
20260831111516 22 219 0.0 0.0 0.00 0.00 0.00 95 1015.7
20260831111015 22 219 0.0 0.0 0.00 0.00 0.00 95 1015.9
20260831110509 22 219 0.0 0.0 0.00 0.00 0.00 95 1015.8
20260831110010 22 219 0.0 0.0 0.00 0.00 0.00 95 1015.7
20260831105510 22 219 0.0 0.0 0.00 0.00 0.00 95 1015.7
20260831105006 22 219 0.0 0.0 0.00 0.00 0.00 94 1015.7
20260831104530 22 219 0.0 0.0 0.00 0.00 0.00 94 1015.7
20260831104009 22 219 0.0 0.0 0.00 0.00 0.00 94 1015.7
20260831103503 22 219 0.0 0.0 0.00 0.00 0.00 94 1015.7
20260831103028 22 219 0.0 0.0 0.00 0.00 0.00 94 1015.7
20260831102507 23 219 0.0 0.0 0.00 0.00 0.00 94 1015.6
20260831102004 23 219 0.0 0.0 0.00 0.00 0.00 94 1015.8
20260831101528 23 219 0.0 0.0 0.00 0.00 0.00 94 1015.8
20260831101008 23 219 0.0 0.0 0.00 0.00 0.00 94 1015.8
20260831100519 23 219 0.0 0.0 0.00 0.00 0.00 94 1015.8
20260831100025 23 219 0.0 0.0 0.00 0.00 0.00 94 1015.8
20260831095507 23 219 0.0 0.0 0.00 0.00 0.00 94 1015.8
20260831095013 23 219 0.0 0.0 0.00 0.00 0.00 94 1015.7
20260831094518 23 219 0.0 0.0 0.00 0.00 0.00 94 1015.7
20260831094006 23 219 0.0 0.0 0.00 0.00 0.00 94 1015.7
20260831093514 23 219 0.0 0.0 0.00 0.00 0.00 94 1015.7
20260831093016 23 219 0.0 0.0 0.00 0.00 0.00 94 1015.7
20260831092515 23 219 0.0 0.0 0.00 0.00 0.00 94 1015.7
20260831092013 23 219 0.0 0.0 0.00 0.00 0.00 93 1015.6
20260831091514 23 219 0.0 0.0 0.00 0.00 0.00 93 1015.6
20260831091014 23 219 0.0 0.0 0.00 0.00 0.00 93 1015.6
20260831090510 23 219 0.0 0.0 0.00 0.00 0.00 93 1015.7
20260831090038 23 219 0.0 0.0 0.00 0.00 0.00 93 1015.7
20260831085514 23 219 0.0 0.0 0.00 0.00 0.00 93 1015.5
20260831085008 23 219 0.0 0.0 0.00 0.00 0.00 93 1015.6
20260831084534 23 219 0.0 0.0 0.00 0.00 0.00 93 1015.6
20260831084009 23 219 0.0 0.0 0.00 0.00 0.00 93 1015.6
20260831083507 23 219 0.0 0.0 0.00 0.00 0.00 92 1015.6
20260831083029 23 219 0.0 0.0 0.00 0.00 0.00 92 1015.7
20260831082509 23 219 0.0 0.0 0.00 0.00 0.00 92 1015.7
20260831082015 23 219 0.0 0.0 0.00 0.00 0.00 92 1015.8
20260831081528 24 219 0.0 0.0 0.00 0.00 0.00 92 1015.7
20260831081011 24 219 0.0 0.0 0.00 0.00 0.00 92 1015.8
20260831080518 24 219 0.0 0.0 0.00 0.00 0.00 91 1015.8
20260831080033 24 219 0.0 0.0 0.00 0.00 0.00 91 1015.7
20260831075506 24 219 0.0 0.0 0.00 0.00 0.00 91 1015.8
20260831075016 24 219 0.0 0.0 0.00 0.00 0.00 91 1015.8
20260831074523 24 219 0.0 0.0 0.00 0.00 0.00 91 1015.9
20260831074015 25 219 0.0 0.0 0.00 0.00 0.00 91 1015.7
20260831073514 25 219 0.0 0.0 0.00 0.00 0.00 91 1015.7
20260831073019 25 219 0.0 0.0 0.00 0.00 0.00 91 1015.8
20260831072516 25 219 0.0 0.0 0.00 0.00 0.00 90 1015.9
20260831072013 25 219 0.0 0.0 0.00 0.00 0.00 90 1015.7
20260831071514 25 219 0.0 0.0 0.00 0.00 0.00 90 1015.7
20260831071014 25 219 0.0 0.0 0.00 0.00 0.00 90 1015.9
20260831070514 25 219 0.0 0.0 0.00 0.00 0.00 90 1015.9
20260831070033 25 219 0.0 0.0 0.00 0.00 0.00 90 1015.8
20260831065514 25 219 0.0 0.0 0.00 0.00 0.00 89 1015.9
20260831065010 25 219 0.0 0.0 0.00 0.00 0.00 89 1016.0
20260831064532 25 219 0.0 0.0 0.00 0.00 0.00 89 1016.0
20260831064013 25 219 0.0 0.0 0.00 0.00 0.00 88 1016.0
20260831063518 25 219 0.0 0.0 0.00 0.00 0.00 87 1016.0
20260831063030 25 219 0.0 0.0 0.00 0.00 0.00 87 1016.1
20260831062511 25 219 0.0 0.0 0.00 0.00 0.00 87 1016.0
20260831062017 25 219 0.0 0.0 0.00 0.00 0.00 87 1016.0
20260831061503 25 219 0.0 0.0 0.00 0.00 0.00 87 1015.9
20260831061014 25 219 0.0 0.0 0.00 0.00 0.00 86 1016.0
20260831060504 25 219 0.0 0.0 0.00 0.00 0.00 86 1016.0
20260831060004 26 219 0.0 0.0 0.00 0.00 0.00 86 1016.0
20260831055508 26 219 0.0 0.0 0.00 0.00 0.00 85 1016.0
20260831055004 26 219 0.0 0.0 0.00 0.00 0.00 85 1016.0
20260831054526 26 219 0.0 0.0 0.00 0.00 0.00 84 1016.0
20260831054006 26 220 0.0 0.0 0.00 0.00 0.00 84 1015.9
20260831053503 26 220 0.0 0.0 0.00 0.00 0.00 84 1015.8
20260831053028 26 220 0.0 0.0 0.00 0.00 0.00 84 1015.9
20260831052506 26 220 0.0 0.0 0.00 0.00 0.00 83 1015.9
20260831052003 26 220 0.0 0.0 0.00 0.00 0.00 83 1015.9
20260831051515 26 220 0.0 0.0 0.00 0.00 0.00 83 1015.9
20260831051003 26 219 0.0 0.0 0.00 0.00 0.00 83 1016.0
20260831050512 26 218 0.0 0.0 0.00 0.00 0.00 83 1015.8
20260831050025 26 210 0.0 0.0 0.00 0.00 0.00 82 1015.7
20260831045503 26 210 0.0 1.6 0.00 0.00 0.00 82 1015.9
20260831045010 26 210 0.0 1.6 0.00 0.00 0.00 82 1015.9
20260831044511 26 210 0.0 0.0 0.00 0.00 0.00 82 1015.8
20260831044013 26 210 0.0 0.0 0.00 0.00 0.00 81 1015.8
20260831043509 26 210 0.0 0.0 0.00 0.00 0.00 80 1015.7
20260831043008 26 210 0.0 0.0 0.00 0.00 0.00 80 1015.6
20260831042514 26 210 0.0 0.0 0.00 0.00 0.00 79 1015.7
20260831042007 27 210 0.0 0.0 0.00 0.00 0.00 78 1015.6
20260831041507 27 210 0.0 0.0 0.00 0.00 0.00 78 1015.5
20260831041011 27 210 0.0 0.0 0.00 0.00 0.00 77 1015.5
20260831040505 27 210 0.0 0.0 0.00 0.00 0.00 77 1015.5
20260831040030 27 210 0.0 0.0 0.00 0.00 0.00 76 1015.5
20260831035513 27 210 0.0 0.0 0.00 0.00 0.00 76 1015.3
20260831035002 28 210 0.0 0.0 0.00 0.00 0.00 75 1015.2
20260831034526 28 210 0.0 0.0 0.00 0.00 0.00 75 1015.3
20260831034009 28 210 0.0 3.2 0.00 0.00 0.00 75 1015.2
20260831033503 28 210 0.0 3.2 0.00 0.00 0.00 74 1015.1
20260831033023 28 256 0.0 0.0 0.00 0.00 0.00 74 1015.1
20260831032504 28 256 0.0 0.0 0.00 0.00 0.00 73 1015.2
20260831032016 28 256 0.0 0.0 0.00 0.00 0.00 73 1015.1
20260831031518 28 256 0.0 1.6 0.00 0.00 0.00 73 1015.0
20260831031005 28 256 0.0 1.6 0.00 0.00 0.00 72 1015.0
20260831030513 28 255 0.0 1.6 0.00 0.00 0.00 72 1014.9
20260831030015 28 255 0.0 1.6 0.00 0.00 0.00 72 1014.9
20260831025504 28 254 0.0 0.0 0.00 0.00 0.00 72 1014.7
20260831025012 28 254 0.0 0.0 0.00 0.00 0.00 71 1014.7
20260831024515 28 255 0.0 0.0 0.00 0.00 0.00 70 1014.6
20260831024018 28 193 0.0 0.0 0.00 0.00 0.00 70 1014.5
20260831023511 28 193 0.0 0.0 0.00 0.00 0.00 70 1014.4
20260831023009 28 193 0.0 0.0 0.00 0.00 0.00 69 1014.3
20260831022513 28 193 0.0 0.0 0.00 0.00 0.00 68 1014.2
20260831022005 29 193 0.0 0.0 0.00 0.00 0.00 67 1014.2
20260831021531 29 79 0.0 1.6 0.00 0.00 0.00 67 1014.1
20260831021012 29 79 0.0 1.6 0.00 0.00 0.00 66 1014.1
20260831020508 29 79 0.0 1.6 0.00 0.00 0.00 66 1014.1
20260831020027 29 79 0.0 1.6 0.00 0.00 0.00 66 1014.0
20260831015508 29 79 0.0 0.0 0.00 0.00 0.00 66 1013.9
20260831015005 30 79 0.0 0.0 0.00 0.00 0.00 65 1013.9
20260831014529 30 79 0.0 0.0 0.00 0.00 0.00 64 1013.9
20260831014007 30 79 0.0 1.6 0.00 0.00 0.00 63 1013.9
20260831013514 30 79 0.0 1.6 0.00 0.00 0.00 62 1013.9
20260831013028 30 79 0.0 0.0 0.00 0.00 0.00 60 1013.9
20260831012505 31 79 0.0 0.0 0.00 0.00 0.00 59 1013.8
20260831012014 31 79 0.0 0.0 0.00 0.00 0.00 58 1013.8
20260831011533 31 79 0.0 0.0 0.00 0.00 0.00 58 1013.7
20260831011005 31 78 0.0 1.6 0.00 0.00 0.00 56 1013.6
20260831010514 31 78 0.0 1.6 0.00 0.00 0.00 57 1013.8
20260831010018 31 78 0.0 1.6 0.00 0.00 0.00 56 1013.8
20260831005516 32 89 0.0 1.6 0.00 0.00 0.00 55 1013.6
20260831005015 32 89 0.0 1.6 0.00 0.00 0.00 55 1013.6
20260831004516 32 89 0.0 0.0 0.00 0.00 0.00 56 1013.7
20260831004018 32 89 0.0 0.0 0.00 0.00 0.00 54 1013.6
20260831003510 33 89 0.0 0.0 0.00 0.00 0.00 53 1013.6
20260831003036 33 96 0.0 0.0 0.00 0.00 0.00 52 1013.6
20260831002511 33 92 0.0 1.6 0.00 0.00 0.00 52 1013.5
20260831002007 33 93 0.0 1.6 0.00 0.00 0.00 51 1013.5
20260831001529 33 107 0.0 1.6 0.00 0.00 0.00 50 1013.5
20260831001012 33 103 0.0 1.6 0.00 0.00 0.00 50 1013.6
20260831000507 34 124 0.0 1.6 0.00 0.00 0.00 48 1013.4
20260831000032 34 103 0.0 1.6 0.00 0.00 0.00 47 1013.4
20260830235512 34 164 0.0 0.0 0.00 0.00 0.00 45 1013.5
20260830235017 35 164 0.0 1.6 0.00 0.00 0.00 44 1013.4
20260830234537 35 207 0.0 1.6 0.00 0.00 0.00 45 1013.4
20260830234007 35 220 0.0 1.6 0.00 0.00 0.00 43 1013.5
20260830233514 35 114 0.0 3.2 0.00 0.00 0.00 43 1013.6
20260830233027 36 221 0.0 4.8 0.00 0.00 0.00 42 1013.5
20260830232508 36 143 0.0 4.8 0.00 0.00 0.00 44 1013.5
20260830232014 36 219 0.0 6.4 0.00 0.00 0.00 44 1013.5
20260830231522 36 78 0.0 6.4 0.00 0.00 0.00 43 1013.4
20260830231016 36 141 0.0 3.2 0.00 0.00 0.00 44 1013.6
20260830230515 36 214 0.0 3.2 0.00 0.00 0.00 42 1013.6
20260830230022 36 87 0.0 3.2 0.00 0.00 0.00 42 1013.5
20260830225515 37 219 0.0 3.2 0.00 0.00 0.00 41 1013.6
20260830225012 37 220 0.0 4.8 0.00 0.00 0.00 42 1013.6
20260830224529 37 255 0.0 4.8 0.00 0.00 0.00 41 1013.6
20260830224017 36 79 0.0 1.6 0.00 0.00 0.00 45 1013.6
20260830223514 36 63 0.0 1.6 0.00 0.00 0.00 44 1013.7
20260830223032 36 68 0.0 1.6 0.00 0.00 0.00 43 1013.7
20260830222513 36 96 0.0 3.2 0.00 0.00 0.00 43 1013.7
20260830222010 37 65 0.0 3.2 0.00 0.00 0.00 42 1013.6
20260830221543 37 115 0.0 3.2 0.00 0.00 0.00 42 1013.7
20260830221012 37 112 0.0 3.2 0.00 0.00 0.00 42 1013.7
20260830220519 37 43 0.0 1.6 0.00 0.00 0.00 44 1013.8
20260830220031 37 236 0.0 3.2 0.00 0.00 0.00 44 1013.8
20260830215513 36 45 1.6 4.8 0.00 0.00 0.00 43 1013.7
20260830215017 36 255 0.0 4.8 0.00 0.00 0.00 44 1013.8
20260830214528 36 232 0.0 3.2 0.00 0.00 0.00 44 1013.9
20260830214013 36 18 0.0 3.2 0.00 0.00 0.00 44 1014.0
20260830213516 36 90 0.0 3.2 0.00 0.00 0.00 44 1013.9
20260830213028 37 72 1.6 6.4 0.00 0.00 0.00 43 1013.9
20260830212519 37 120 1.6 6.4 0.00 0.00 0.00 43 1014.1
20260830212016 37 94 0.0 4.8 0.00 0.00 0.00 43 1014.1
20260830211504 37 85 0.0 4.8 0.00 0.00 0.00 44 1014.0
20260830211004 37 90 0.0 3.2 0.00 0.00 0.00 44 1014.2